Location: Rumah Kahai
(2.7333°N, 113.8000°E)
Time: 15:50:09
(UTC+00:00)

Daily predictions for brighter satellites

Satellite Brightness Start Highest point End
(mag) Time Altitude Azimuth Time Altitude Azimuth Time Altitude Azimuth
Sich 1 4.3 12:01:23 10° NNE 12:03:39 27° NE 12:03:39 27° NE
Cosmos 1697 Rocket 3.8 12:00:41 10° SW 12:06:03 45° WNW 12:11:25 10° N
Okean-O 3.9 12:09:46 29° NNE 12:09:46 29° NNE 12:12:16 10° N
OBJECT-B 3.4 12:11:50 12° N 12:11:50 12° N 12:12:07 10° N
GPS 2-15 Rocket1 3.0 12:04:48 10° WSW 12:09:25 74° S 12:09:25 74° S
ARIANE 5 DEB (SYLDA 5A) 2.9 12:05:24 10° W 12:09:29 44° WSW 12:09:29 44° WSW
Cosmos 1486 Rocket 4.4 12:05:25 10° SSW 12:10:41 65° WNW 12:15:56 10° N
CSL-04 Debris 4.3 12:13:23 52° ENE 12:13:23 52° ENE 12:18:21 10° N
Aurora 2 Rocket 3.8 12:11:45 10° NW 12:14:24 24° N 12:14:24 24° N
Cosmos 540 Rocket 3.4 12:12:15 10° NNW 12:17:23 78° WSW 12:18:13 61° S
Ariane H10 3.9 12:18:39 10° W 12:20:18 38° W 12:20:18 38° W
Cosmos 1816 Rocket 4.4 12:15:27 10° N 12:21:34 85° W 12:23:34 46° S
Cosmos 1666 4.1 12:18:33 10° N 12:20:40 32° NNW 12:20:40 32° NNW
ARIANE 5 R/B 3.2 12:20:15 10° W 12:23:23 73° S 12:23:42 71° SSE
USA 234 3.5 12:27:44 50° ENE 12:27:57 50° NE 12:34:14 10° NNW
CENTAUR R/B 3.9 12:21:27 10° N 12:29:25 37° ENE 12:29:25 37° ENE
Cosmos 841 Rocket 3.8 12:31:35 10° NNW 12:35:53 60° NW 12:35:53 60° NW
Cosmos 2297 Rocket 4.4 12:34:02 10° NNE 12:34:36 12° NNE 12:34:36 12° NNE
ARIANE 3 DEB 4.0 12:33:48 10° W 12:42:42 65° NNW 12:42:42 65° NNW
Meteor 1-27 Rocket 4.2 12:46:10 55° NNW 12:46:10 55° NNW 12:50:41 10° N
Tsikada Rocket 4.3 12:46:45 10° NNW 12:52:46 59° W 12:52:46 59° W
H-2A R/B 4.3 12:49:40 10° NNW 12:52:50 21° WNW 12:53:00 21° W
Atlas Centaur 2 4.4 19:19:44 25° ESE 19:19:44 25° ESE 19:24:13 10° E
ARIANE 5 R/B 3.9 19:56:24 35° SE 19:56:24 35° SE 20:05:01 10° ESE
SeaSat 1 4.5 19:53:24 10° N 19:54:51 19° N 19:54:51 19° N
MOS 1-B Rocket 4.1 19:59:13 52° SE 20:00:30 67° ENE 20:06:04 10° N
Ariane H10 4.0 20:04:54 36° ESE 20:04:54 36° ESE 20:10:21 10° E
Cosmos 1607 3.9 20:05:33 86° ENE 20:05:33 86° ENE 20:11:45 10° NNE
BREEZE-M R/B 3.4 20:11:45 60° SE 20:11:45 60° SE 20:17:45 10° SE
Meteor 2-20 4.4 20:17:36 64° WNW 20:17:36 64° WNW 20:23:15 10° N
Cosmos 1758 Rocket 4.0 20:21:52 58° NNE 20:21:52 58° NNE 20:25:27 10° N
ARIANE 5 R/B 4.3 20:18:05 10° NNW 20:19:42 19° NNW 20:19:42 19° NNW
Ariane H10 3.9 20:24:35 46° SSW 20:25:35 51° SSE 20:46:39 10° E
Cosmos 2366 rocket 3.9 20:19:33 10° NNW 20:25:40 63° W 20:26:13 60° WSW
Cosmos 2263 4.4 20:23:46 10° N 20:29:27 71° ENE 20:35:12 10° SSE
Delta 168 4.4 20:31:08 22° ESE 20:31:08 22° ESE 20:32:43 10° E
Meteor 2-20 Rocket 4.3 20:28:43 48° SSW 20:30:30 75° W 20:36:38 10° N
Cosmos 1110 Rocket 3.8 20:30:47 68° W 20:30:49 68° WNW 20:35:56 10° N
ATLAS 5 CENTAUR R/B 4.1 20:32:32 25° SSW 20:37:02 31° S 21:06:38 10° ESE
Cosmos 1633 4.3 20:39:09 22° NNW 20:39:09 22° NNW 20:40:34 10° N
CZ-2C R/B 2.8 20:34:02 10° NNE 20:37:18 70° NNE 20:37:18 70° NNE
Cosmos 1331 Rocket 4.0 20:42:48 51° WSW 20:43:26 54° WNW 20:48:29 10° N
Ariane 44P Rocket 4.2 20:39:03 30° WSW 20:45:06 53° S 20:49:19 10° ESE
Cosmos 1190 Rocket 4.2 20:43:13 10° N 20:48:29 74° ENE 20:53:47 10° SSE
CZ-4B R/B 3.5 20:43:57 10° N 20:49:11 70° WNW 20:51:54 29° SSW
Cosmos 2082 Rocket 4.1 20:44:40 10° SSE 20:49:25 27° ESE 20:54:09 10° NE
SL-8 R/B 3.6 20:50:15 46° SW 20:51:39 78° NW 20:56:27 10° NE
Cosmos 2369 Rocket 2.5 20:47:25 10° NW 20:52:37 40° WSW 20:57:50 10° S
Cosmos 1656 Rocket 3.7 20:52:01 10° NNW 20:57:13 48° WSW 21:02:30 10° S
Cosmos 1812 Rocket 4.4 20:53:15 10° N 20:57:34 52° E 21:01:54 10° SSE
Hubble Space Telescope 0.8 20:57:43 41° SW 20:58:59 67° SSE 21:03:03 10° ENE
SL-08 R/B 4.4 20:53:57 10° N 21:00:09 69° W 21:06:29 10° S
ARIANE 5 R/B 1.1 21:01:26 75° SSW 21:01:28 75° S 21:03:22 10° E
Haruka 3.4 20:56:21 10° NW 21:03:20 56° NNE 21:06:40 10° ESE
Cosmos 1953 Rocket 3.5 20:59:29 10° S 21:03:47 85° E 21:08:10 10° N
Star 48 S/N 10040-3 4.2 21:04:06 46° SSW 21:04:06 46° SSW 21:07:08 10° SE
Atlas Centaur 2 3.0 21:02:17 25° WSW 21:07:08 85° NNW 21:15:39 10° NE
Cosmos-2242 3.7 21:06:42 10° N 21:10:54 56° E 21:15:05 10° SSE
SL-08 R/B 3.1 21:06:22 10° S 21:10:57 70° WSW 21:15:30 10° NNW
Meteor 1-27 4.2 21:05:28 10° NNW 21:11:00 60° W 21:16:30 10° S
PSLV R/B 4.3 21:07:30 10° NNW 21:11:23 33° WNW 21:12:58 25° WSW
NOAA 11 4.2 21:10:03 10° NNE 21:15:30 86° ESE 21:20:57 10° S
COSMOS 2406 3.2 21:18:18 10° SSW 21:23:59 73° WNW 21:29:42 10° N
CZ-2C R/B 3.2 21:19:23 10° N 21:24:56 68° WNW 21:30:12 10° SSW
Cosmos 1340 Rocket 3.0 21:21:30 10° S 21:25:30 72° E 21:29:27 10° N
USA 281 4.4 21:27:29 10° NE 21:33:34 42° ESE 21:39:41 10° S
H-2A R/B 4.3 21:35:13 10° NW 21:37:35 17° WNW 21:39:35 12° WSW
ARIANE 44LP R/B 3.2 21:38:44 13° SW 21:40:12 28° S 21:43:19 10° ESE
CZ-4C R/B 4.2 21:40:13 10° SSW 21:42:58 22° W 21:45:44 10° NW
Skynet4D Del rocket 3.9 21:37:07 11° WSW 21:43:37 87° NNW 21:49:29 10° ENE
Cosmos 1833 Rocket 3.9 21:39:51 10° WSW 21:44:02 22° WNW 21:48:14 10° NNW
Cosmos 1605 Rocket 4.4 21:40:01 10° N 21:46:17 73° E 21:52:39 10° S
Meteor 2-3 Rocket 3.9 21:41:08 10° S 21:46:57 83° E 21:52:44 10° N
ARIANE 5 R/B 3.1 21:31:57 10° W 21:50:19 74° S 21:53:44 10° E
CZ-2C R/B 2.9 21:51:46 10° S 21:56:40 44° WSW 22:01:33 10° NNW
Cosmos 1727 Rocket 4.2 21:51:58 10° SSW 21:57:58 51° W 22:04:01 10° NNW
Centaur Rocket 3.9 21:47:21 10° WNW 21:58:58 90° NNE 22:02:43 10° ESE
ARIANE 5 DEB (SYLDA) 3.9 21:50:52 10° W 22:01:12 66° S 22:05:07 10° E
